Hof Plauen, Germany

7:13 AM CEST on April 28, 2017 (GMT +0200)
Hof-Plauen

Weather History for EDQM - April, 2013

Change the Weather History Date:

Wednesday, April 17, 2013

  Actual Average Record
Temperature  
Mean Temperature 58 °F -  
Max Temperature 65 °F 56 °F 73 °F (2007)
Min Temperature 50 °F 40 °F 25 °F (2012)
Degree Days  
Heating Degree Days 8    
Growing Degree Days 8 (Base 50)    
Moisture  
Dew Point 46 °F    
Average Humidity 63    
Maximum Humidity 92    
Minimum Humidity 40    
Precipitation  
Precipitation 0.00 in - - ()
Sea Level Pressure  
Sea Level Pressure 30.19 in    
Wind  
Wind Speed 4 mph ()    
Max Wind Speed 10 mph    
Max Gust Speed -    
Visibility 7.1 miles    
Events      
Averages and records for this station are not official NWS values.
T = Trace of Precipitation, MM = Missing Value Source: Averaged Metar Reports

Daily Weather History Graph

Daily Weather History Graph

Search for Another Location

Airport or City:

Trip Planner

Search our weather history database for the weather conditions in past years. The results will help you decide how hot, cold, wet, or windy it might be!

Date:

Astronomy

Apr. 17, 2013 Rise Set
Actual Time 6:14 AM CEST 8:10 PM CEST
Civil Twilight 5:40 AM CEST 8:45 PM CEST
Nautical Twilight 4:57 AM CEST 9:28 PM CEST
Astronomical Twilight 4:09 AM CEST 10:16 PM CEST
Moon 10:59 AM CEST (4/17) 1:50 AM CEST (4/17)
Length of Visible Light 15h 04m
Length of Day
13h 55m
Waxing Crescent, 40% of the Moon is Illuminated
Apr 17
Waxing Crescent
Apr 18
First Quarter
Apr 25
Full
May 2
Last Quarter
May 10
New

Hourly Weather History & Observations

Time (CEST) Temp. Dew Point Humidity Pressure Visibility Wind Dir Wind Speed Gust Speed Precip Events Conditions
12:00 AM 54 °F 50 °F 80% 30.17 in 4 mi WSW 2.2 mph - -   Mist
12:20 AM 55.4 °F 48.2 °F 77% 30.18 in 6.2 mi South 2.3 mph - N/A   Scattered Clouds
12:50 AM 51.8 °F 46.4 °F 82% 30.18 in 5.6 mi South 2.3 mph - N/A   Mostly Cloudy
1:00 AM 51 °F 49 °F 92% 30.19 in 2 mi SW 2.2 mph - -   Mist
1:20 AM 55.4 °F 48.2 °F 77% 30.18 in 5.0 mi Variable 2.3 mph - N/A   Mostly Cloudy
1:50 AM 51.8 °F 46.4 °F 82% 30.18 in 3.7 mi South 4.6 mph - N/A   Partly Cloudy
2:00 AM 51 °F 48 °F 87% 30.18 in 2 mi SSW 2.2 mph - -   Mist
2:20 AM 53.6 °F 46.4 °F 77% 30.18 in 6.2 mi South 4.6 mph - N/A   Partly Cloudy
2:50 AM 53.6 °F 46.4 °F 77% 30.18 in 6.2 mi SW 4.6 mph - N/A   Scattered Clouds
3:00 AM 53 °F 49 °F 80% 30.18 in 4 mi WSW 4.5 mph - -   Mist
3:20 AM 53.6 °F 46.4 °F 77% 30.18 in 6.2 mi South 4.6 mph - N/A   Mostly Cloudy
3:50 AM 53.6 °F 44.6 °F 72% 30.18 in 6.2 mi SW 6.9 mph - N/A   Overcast
4:00 AM 53 °F 48 °F 78% 30.19 in 4 mi West 2.2 mph - -   Mist
4:20 AM 53.6 °F 44.6 °F 72% 30.18 in 6.2 mi West 9.2 mph - N/A   Mostly Cloudy
4:50 AM 53.6 °F 44.6 °F 72% 30.21 in 6.2 mi West 9.2 mph - N/A   Mostly Cloudy
5:20 AM 53.6 °F 44.6 °F 72% 30.21 in 6.2 mi West 9.2 mph - N/A   Mostly Cloudy
5:50 AM 53.6 °F 44.6 °F 72% 30.21 in 6.2 mi West 4.6 mph - N/A   Overcast
6:00 AM 51 °F 47 °F 80% 30.21 in 9 mi WSW 4.5 mph - -   Partly Cloudy
6:20 AM 51.8 °F 44.6 °F 76% 30.21 in 6.2 mi South 2.3 mph - N/A   Overcast
6:50 AM 51.8 °F 44.6 °F 76% 30.21 in - South 3.5 mph - N/A   Clear
7:00 AM 51 °F 47 °F 80% 30.23 in 16 mi West 2.2 mph - -   Mostly Cloudy
7:20 AM 50.0 °F 44.6 °F 82% 30.24 in - SSW 2.3 mph - N/A   Clear
7:50 AM 51.8 °F 46.4 °F 82% 30.24 in - WSW 3.5 mph - N/A   Clear
8:20 AM 55.4 °F 46.4 °F 72% 30.24 in - Variable 2.3 mph - N/A   Clear
8:50 AM 55.4 °F 46.4 °F 72% 30.24 in - Variable 2.3 mph - N/A   Clear
9:00 AM 54 °F 47 °F 70% 30.24 in 16 mi East 2.2 mph - -   Mostly Cloudy
9:20 AM 55.4 °F 42.8 °F 63% 30.27 in - Variable 2.3 mph - N/A   Clear
9:50 AM 57.2 °F 41.0 °F 55% 30.27 in - Variable 2.3 mph - N/A   Clear
10:00 AM 56 °F 44 °F 53% 30.24 in 19 mi North 2.2 mph - -   Mostly Cloudy
10:20 AM 59.0 °F 42.8 °F 55% 30.27 in - Variable 2.3 mph - N/A   Clear
10:50 AM 59.0 °F 44.6 °F 59% 30.24 in - SE 4.6 mph - N/A   Clear
11:20 AM 62.6 °F 46.4 °F 55% 30.24 in - South 5.8 mph - N/A   Clear
11:50 AM 60.8 °F 44.6 °F 55% 30.24 in - SSW 6.9 mph - N/A   Clear
12:00 PM 60 °F 46 °F 50% 30.21 in 22 mi SSW 6.7 mph - -   Scattered Clouds
12:20 PM 60.8 °F 42.8 °F 52% 30.24 in - WSW 6.9 mph - N/A   Clear
12:50 PM 62.6 °F 42.8 °F 48% 30.24 in 6.2 mi WSW 8.1 mph - N/A   Partly Cloudy
1:00 PM 63 °F 48 °F 47% 30.19 in 19 mi SW 6.7 mph - -   Scattered Clouds
1:20 PM 62.6 °F 44.6 °F 52% 30.24 in - SW 8.1 mph - N/A   Clear
1:50 PM 62.6 °F 44.6 °F 52% 30.24 in - WSW 10.4 mph - N/A   Clear
2:00 PM 63 °F 47 °F 44% 30.18 in 22 mi SW 6.7 mph - -   Scattered Clouds
2:20 PM 64.4 °F 44.6 °F 49% 30.21 in - SSW 10.4 mph - N/A   Clear
2:50 PM 66.2 °F 46.4 °F 49% 30.21 in - SSW 8.1 mph - N/A   Clear
3:00 PM 65 °F 47 °F 42% 30.17 in 22 mi SSW 6.7 mph - -   Overcast
3:20 PM 64.4 °F 46.4 °F 52% 30.21 in - SSW 8.1 mph - N/A   Clear
3:50 PM 66.2 °F 44.6 °F 46% 30.21 in 6.2 mi SW 6.9 mph - N/A   Scattered Clouds
4:00 PM 65 °F 46 °F 40% 30.15 in 22 mi WSW 6.7 mph - -   Overcast
4:20 PM 64.4 °F 44.6 °F 49% 30.21 in 6.2 mi SSW 8.1 mph - N/A   Mostly Cloudy
4:50 PM 64.4 °F 46.4 °F 52% 30.18 in 6.2 mi SW 6.9 mph - N/A   Mostly Cloudy
5:20 PM 66.2 °F 44.6 °F 46% 30.18 in 6.2 mi SW 9.2 mph - N/A   Scattered Clouds
5:50 PM 66.2 °F 46.4 °F 49% 30.18 in - South 8.1 mph - N/A   Clear
6:00 PM 65 °F 47 °F 42% 30.13 in 22 mi SSW 6.7 mph - -   Scattered Clouds
6:20 PM 64.4 °F 46.4 °F 52% 30.18 in - SW 8.1 mph - N/A   Clear
6:50 PM 62.6 °F 44.6 °F 52% 30.18 in - SSW 6.9 mph - N/A   Clear
7:00 PM 63 °F 47 °F 45% 30.12 in 25 mi SSW 4.5 mph - -   Overcast
7:20 PM 62.6 °F 46.4 °F 55% 30.18 in - SSW 4.6 mph - N/A   Clear
7:50 PM 60.8 °F 46.4 °F 59% 30.15 in 6.2 mi South 4.6 mph - N/A   Unknown
8:00 PM 62 °F 48 °F 49% 30.12 in 25 mi South 4.5 mph - -   Overcast
8:20 PM 59.0 °F 46.4 °F 63% 30.15 in 6.2 mi South 3.5 mph - N/A   Partly Cloudy
8:50 PM 59.0 °F 46.4 °F 63% 30.15 in 6.2 mi Calm Calm - N/A   Scattered Clouds
9:00 PM 60 °F 48 °F 54% 30.13 in 25 mi South 4.5 mph - -   Overcast
9:20 PM 59.0 °F 46.4 °F 63% 30.15 in 6.2 mi Variable 2.3 mph - N/A   Unknown
9:50 PM 57.2 °F 44.6 °F 63% 30.15 in 6.2 mi Variable 1.2 mph - N/A   Partly Cloudy
10:00 PM 57 °F 47 °F 62% 30.14 in 11 mi SSE 4.5 mph - -   Overcast
10:50 PM 55.4 °F 44.6 °F 67% 30.15 in 6.2 mi South 3.5 mph - N/A   Unknown
11:20 PM 55.4 °F 44.6 °F 67% 30.15 in 6.2 mi SSW 4.6 mph - N/A   Unknown
11:50 PM 53.6 °F 44.6 °F 72% 30.12 in 6.2 mi SSW 3.5 mph - N/A   Unknown